,,,PA_Meas_PMT16A,,PR_Meas_QMR101_102,,RH_Meas_QMH101,,SR_Meas_QMS101,,TA_Meas_QMH101,,GenWind,,GenWind,
date,time,status,PA,status,PR,status,RH,status,SR,status,TA,status,DirAvg,status,SpdAvg,
2010-02-16, 00:00:04,VALID,1004.9,VALID,0,VALID,83.0251,VALID,0,VALID,25.9427,VALID,342,VALID,0.950781,
2010-02-16, 00:01:04,VALID,1004.98,VALID,0,VALID,83.0938,VALID,0,VALID,25.9622,VALID,352,VALID,0.803125,
2010-02-16, 00:02:04,VALID,1004.94,VALID,0,VALID,83.0175,VALID,0,VALID,25.9622,VALID,345,VALID,1.1293,
2010-02-16, 00:03:04,VALID,1004.95,VALID,0,VALID,83.3226,VALID,0,VALID,25.9602,VALID,351,VALID,0.601953,
2010-02-16, 00:04:04,VALID,1004.97,VALID,0,VALID,83.1014,VALID,0,VALID,25.9408,VALID,352,VALID,0.698047,
2010-02-16, 00:05:04,VALID,1004.97,VALID,0,VALID,83.2463,VALID,0,VALID,25.9622,VALID,358,VALID,0.649219,
2010-02-16, 00:06:04,VALID,1004.96,VALID,0,VALID,83.254,VALID,0,VALID,25.9602,VALID,357,VALID,0.252734,
2010-02-16, 00:07:04,VALID,1004.97,VALID,0,VALID,83.2845,VALID,0,VALID,25.9622,VALID,324,VALID,0.713281,
2010-02-16, 00:08:04,VALID,1004.97,VALID,0,VALID,83.3913,VALID,0,VALID,25.9622,VALID,355,VALID,0.673047,
2010-02-16, 00:09:04,VALID,1004.98,VALID,0,VALID,83.3531,VALID,0,VALID,25.9213,VALID,342,VALID,1.2082,
2010-02-16, 00:10:04,VALID,1004.98,VALID,0,VALID,83.4294,VALID,0,VALID,25.9622,VALID,353,VALID,0.292578,
2010-02-16, 00:11:04,VALID,1004.96,VALID,0,VALID,83.4981,VALID,0,VALID,25.9622,VALID,340,VALID,0.629297,
2010-02-16, 00:12:04,VALID,1004.96,VALID,0,VALID,83.521,VALID,0,VALID,25.9213,VALID,356,VALID,0.905078,
2010-02-16, 00:13:04,VALID,1004.93,VALID,0,VALID,83.5744,VALID,0,VALID,25.9427,VALID,351,VALID,0.870703,
2010-02-16, 00:14:04,VALID,1004.92,VALID,0,VALID,83.6888,VALID,0,VALID,25.9213,VALID,312,VALID,0.625781,
2010-02-16, 00:15:04,VALID,1004.9,VALID,0,VALID,83.8795,VALID,0,VALID,25.8823,VALID,333,VALID,0.365234,
2010-02-16, 00:16:04,VALID,1004.86,VALID,0,VALID,83.9711,VALID,0,VALID,25.8843,VALID,344,VALID,0.544531,
2010-02-16, 00:17:04,VALID,1004.88,VALID,0,VALID,84.1847,VALID,0,VALID,25.8239,VALID,355,VALID,0.550781,
2010-02-16, 00:18:04,VALID,1004.9,VALID,0,VALID,84.4746,VALID,0,VALID,25.785,VALID,355,VALID,0.298047,
2010-02-16, 00:19:04,VALID,1004.88,VALID,0,VALID,84.6043,VALID,0,VALID,25.7674,VALID,352,VALID,0.526172,
2010-02-16, 00:20:04,VALID,1004.87,VALID,0,VALID,84.8026,VALID,0,VALID,25.7285,VALID,351,VALID,0.524219,
2010-02-16, 00:21:04,VALID,1004.88,VALID,0,VALID,85.001,VALID,0,VALID,25.6895,VALID,339,VALID,0.566016,
2010-02-16, 00:22:04,VALID,1004.87,VALID,0,VALID,85.0239,VALID,0,VALID,25.6681,VALID,339,VALID,0.401563,
2010-02-16, 00:23:04,VALID,1004.85,VALID,0,VALID,85.1765,VALID,0,VALID,25.6506,VALID,339,VALID,0.455469,
2010-02-16, 00:24:04,VALID,1004.85,VALID,0,VALID,85.3672,VALID,0,VALID,25.6116,VALID,353,VALID,0.760938,
2010-02-16, 00:25:04,VALID,1004.82,VALID,0,VALID,85.535,VALID,0,VALID,25.5921,VALID,353,VALID,0.578125,
2010-02-16, 00:26:04,VALID,1004.81,VALID,0,VALID,85.7105,VALID,0,VALID,25.5727,VALID,350,VALID,0.58125,
2010-02-16, 00:27:04,VALID,1004.81,VALID,0,VALID,85.947,VALID,0,VALID,25.5123,VALID,352,VALID,0.467969,
2010-02-16, 00:28:04,VALID,1004.82,VALID,0,VALID,86.0995,VALID,0,VALID,25.4734,VALID,2,VALID,0.555078,
2010-02-16, 00:29:04,VALID,1004.82,VALID,0,VALID,86.1224,VALID,0,VALID,25.4753,VALID,8,VALID,0.0941406,
2010-02-16, 00:30:04,VALID,1004.79,VALID,0,VALID,86.3132,VALID,0,VALID,25.4363,VALID,8,VALID,0.377734,
2010-02-16, 00:31:04,VALID,1004.76,VALID,0,VALID,86.4581,VALID,0,VALID,25.4169,VALID,8,VALID,0.186328,
2010-02-16, 00:32:04,VALID,1004.77,VALID,0,VALID,86.6031,VALID,0,VALID,25.376,VALID,6,VALID,0.227734,
2010-02-16, 00:33:04,VALID,1004.76,VALID,0,VALID,86.748,VALID,0,VALID,25.3779,VALID,6,VALID,0.254687,
2010-02-16, 00:34:04,VALID,1004.74,VALID,0,VALID,86.8853,VALID,0,VALID,25.3779,VALID,6,VALID,0.399609,
2010-02-16, 00:35:04,VALID,1004.71,VALID,0,VALID,86.9387,VALID,0,VALID,25.3584,VALID,333,VALID,0.623047,
2010-02-16, 00:36:04,VALID,1004.72,VALID,0,VALID,86.9921,VALID,0,VALID,25.3584,VALID,334,VALID,0.394141,
2010-02-16, 00:37:04,VALID,1004.69,VALID,0,VALID,86.9464,VALID,0,VALID,25.3176,VALID,334,VALID,0.344141,
2010-02-16, 00:38:04,VALID,1004.66,VALID,0,VALID,87.015,VALID,0,VALID,25.2962,VALID,340,VALID,0.435937,
2010-02-16, 00:39:04,VALID,1004.67,VALID,0,VALID,87.0074,VALID,0,VALID,25.3195,VALID,340,VALID,0.172266,
2010-02-16, 00:40:04,VALID,1004.65,VALID,0,VALID,87.0379,VALID,0.100563,VALID,25.3195,VALID,340,VALID,0.367188,
2010-02-16, 00:41:04,VALID,1004.61,VALID,0,VALID,87.1523,VALID,0.100563,VALID,25.2786,VALID,351,VALID,0.755078,
2010-02-16, 00:42:04,VALID,1004.63,VALID,0,VALID,87.2134,VALID,0.100563,VALID,25.2786,VALID,327,VALID,0.452734,
2010-02-16, 00:43:04,VALID,1004.6,VALID,0,VALID,87.1981,VALID,0,VALID,25.3,VALID,351,VALID,0.659766,
2010-02-16, 00:44:04,VALID,1004.58,VALID,0,VALID,87.0684,VALID,0,VALID,25.3,VALID,351,VALID,0.419531,
2010-02-16, 00:45:04,VALID,1004.53,VALID,0,VALID,87.076,VALID,0,VALID,25.3195,VALID,350,VALID,0.678906,
2010-02-16, 00:46:04,VALID,1004.5,VALID,0,VALID,87.1066,VALID,0,VALID,25.2981,VALID,326,VALID,0.521484,
2010-02-16, 00:47:04,VALID,1004.52,VALID,0,VALID,87.0379,VALID,0,VALID,25.3176,VALID,342,VALID,0.722266,
2010-02-16, 00:48:04,VALID,1004.49,VALID,0,VALID,87.015,VALID,0,VALID,25.339,VALID,358,VALID,0.712891,
2010-02-16, 00:49:04,VALID,1004.48,VALID,0,VALID,86.8777,VALID,0,VALID,25.3779,VALID,12,VALID,0.786328,
2010-02-16, 00:50:04,VALID,1004.48,VALID,0,VALID,86.8167,VALID,0,VALID,25.3565,VALID,2,VALID,0.434375,
2010-02-16, 00:51:04,VALID,1004.47,VALID,0,VALID,86.7938,VALID,0,VALID,25.3779,VALID,11,VALID,0.662891,
2010-02-16, 00:52:04,VALID,1004.48,VALID,0,VALID,86.7709,VALID,0,VALID,25.376,VALID,346,VALID,0.605859,
2010-02-16, 00:53:04,VALID,1004.48,VALID,0,VALID,86.6946,VALID,0,VALID,25.376,VALID,4,VALID,0.461719,
2010-02-16, 00:54:04,VALID,1004.48,VALID,0,VALID,86.5878,VALID,0,VALID,25.4169,VALID,4,VALID,0.330078,
2010-02-16, 00:55:04,VALID,1004.46,VALID,0,VALID,86.5191,VALID,0,VALID,25.4169,VALID,20,VALID,0.889844,
2010-02-16, 00:56:04,VALID,1004.45,VALID,0,VALID,86.4123,VALID,0.100563,VALID,25.4149,VALID,349,VALID,0.482812,
2010-02-16, 00:57:04,VALID,1004.45,VALID,0,VALID,86.1835,VALID,0,VALID,25.4344,VALID,350,VALID,0.410547,
2010-02-16, 00:58:04,VALID,1004.44,VALID,0,VALID,86.1682,VALID,0,VALID,25.4539,VALID,350,VALID,0.473047,
2010-02-16, 00:59:04,VALID,1004.47,VALID,0,VALID,86.1606,VALID,0,VALID,25.4344,VALID,9,VALID,0.38125,
2010-02-16, 01:00:04,VALID,1004.44,VALID,0,VALID,86.2369,VALID,0,VALID,25.4558,VALID,8,VALID,0.555859,
2010-02-16, 01:01:04,VALID,1004.42,VALID,0,VALID,86.4123,VALID,0,VALID,25.4363,VALID,6,VALID,0.308203,
2010-02-16, 01:02:04,VALID,1004.39,VALID,0,VALID,86.3666,VALID,0,VALID,25.4169,VALID,344,VALID,0.555469,
2010-02-16, 01:03:04,VALID,1004.36,VALID,0,VALID,86.4657,VALID,0,VALID,25.376,VALID,348,VALID,0.446484,
2010-02-16, 01:04:04,VALID,1004.34,VALID,0,VALID,86.5573,VALID,0,VALID,25.3565,VALID,330,VALID,0.5375,
2010-02-16, 01:05:04,VALID,1004.33,VALID,0,VALID,86.5954,VALID,0,VALID,25.3565,VALID,350,VALID,0.542969,
2010-02-16, 01:06:04,VALID,1004.31,VALID,0,VALID,86.7251,VALID,0,VALID,25.337,VALID,348,VALID,0.55625,
2010-02-16, 01:07:04,VALID,1004.27,VALID,0,VALID,86.7938,VALID,0,VALID,25.3176,VALID,348,VALID,0.397656,
2010-02-16, 01:08:04,VALID,1004.25,VALID,0,VALID,86.9769,VALID,0,VALID,25.3,VALID,9,VALID,1.32734,
2010-02-16, 01:09:04,VALID,1004.2,VALID,0,VALID,86.9464,VALID,0,VALID,25.2981,VALID,350,VALID,0.658594,
2010-02-16, 01:10:04,VALID,1004.17,VALID,0,VALID,87.0074,VALID,0,VALID,25.3,VALID,354,VALID,0.555859,
2010-02-16, 01:11:04,VALID,1004.15,VALID,0,VALID,87.0532,VALID,0,VALID,25.3195,VALID,309,VALID,0.360938,
2010-02-16, 01:12:04,VALID,1004.13,VALID,0,VALID,87.0913,VALID,0,VALID,25.3195,VALID,310,VALID,0.224219,
2010-02-16, 01:13:04,VALID,1004.12,VALID,0,VALID,87.1523,VALID,0,VALID,25.339,VALID,31,VALID,0.508203,
2010-02-16, 01:14:04,VALID,1004.09,VALID,0,VALID,87.1981,VALID,0,VALID,25.3584,VALID,13,VALID,0.0867188,
2010-02-16, 01:15:04,VALID,1004.08,VALID,0,VALID,87.221,VALID,0,VALID,25.2981,VALID,334,VALID,0.208594,
2010-02-16, 01:16:04,VALID,1004.13,VALID,0,VALID,87.1676,VALID,0,VALID,25.3176,VALID,357,VALID,0.267578,
2010-02-16, 01:17:04,VALID,1004.13,VALID,0,VALID,87.1752,VALID,0,VALID,25.2981,VALID,357,VALID,0.184766,
2010-02-16, 01:18:04,VALID,1004.15,VALID,0,VALID,87.2591,VALID,0,VALID,25.2981,VALID,356,VALID,0.442578,
2010-02-16, 01:19:04,VALID,1004.16,VALID,0,VALID,87.3278,VALID,0,VALID,25.3195,VALID,356,VALID,0.0410156,
2010-02-16, 01:20:04,VALID,1004.18,VALID,0,VALID,87.343,VALID,0,VALID,25.2786,VALID,347,VALID,0.284375,
2010-02-16, 01:21:04,VALID,1004.19,VALID,0,VALID,87.4041,VALID,0,VALID,25.2611,VALID,315,VALID,0.344141,
2010-02-16, 01:22:04,VALID,1004.19,VALID,0,VALID,87.4651,VALID,0,VALID,25.2611,VALID,318,VALID,0.153906,
2010-02-16, 01:23:04,VALID,1004.19,VALID,0,VALID,87.427,VALID,0,VALID,25.2806,VALID,332,VALID,0.511719,
2010-02-16, 01:24:04,VALID,1004.18,VALID,0,VALID,87.343,VALID,0,VALID,25.2806,VALID,352,VALID,0.740234,
2010-02-16, 01:25:04,VALID,1004.17,VALID,0,VALID,87.2896,VALID,0,VALID,25.2592,VALID,349,VALID,0.640625,
2010-02-16, 01:26:04,VALID,1004.17,VALID,0,VALID,87.2362,VALID,0,VALID,25.2592,VALID,346,VALID,0.510156,
2010-02-16, 01:27:04,VALID,1004.15,VALID,0,VALID,87.2668,VALID,0,VALID,25.2592,VALID,345,VALID,0.530859,
2010-02-16, 01:28:04,VALID,1004.14,VALID,0,VALID,87.343,VALID,0,VALID,25.2202,VALID,345,VALID,0.277734,
2010-02-16, 01:29:04,VALID,1004.13,VALID,0,VALID,87.3583,VALID,0,VALID,25.2007,VALID,336,VALID,0.723828,
2010-02-16, 01:30:04,VALID,1004.13,VALID,0,VALID,87.5033,VALID,0,VALID,25.1813,VALID,341,VALID,0.484375,
2010-02-16, 01:31:04,VALID,1004.1,VALID,0,VALID,87.5185,VALID,0,VALID,25.2027,VALID,337,VALID,0.589453,
2010-02-16, 01:32:04,VALID,1004.09,VALID,0,VALID,87.5261,VALID,0.100563,VALID,25.1832,VALID,306,VALID,0.521875,
2010-02-16, 01:33:04,VALID,1004.11,VALID,0,VALID,87.5414,VALID,0,VALID,25.2027,VALID,291,VALID,0.01875,
2010-02-16, 01:34:04,VALID,1004.14,VALID,0,VALID,87.6558,VALID,0,VALID,25.1832,VALID,291,VALID,0.0367187,
2010-02-16, 01:35:04,VALID,1004.13,VALID,0,VALID,87.7321,VALID,0,VALID,25.1423,VALID,291,VALID,0.319531,
2010-02-16, 01:36:04,VALID,1004.15,VALID,0,VALID,87.7169,VALID,0,VALID,25.1229,VALID,291,VALID,0.1125,
2010-02-16, 01:37:04,VALID,1004.18,VALID,0,VALID,87.8313,VALID,0,VALID,25.1034,VALID,291,VALID,0,
2010-02-16, 01:38:04,VALID,1004.18,VALID,0,VALID,88.0068,VALID,0,VALID,25.0644,VALID,291,VALID,0.253125,
2010-02-16, 01:39:04,VALID,1004.19,VALID,0,VALID,87.9839,VALID,0,VALID,25.045,VALID,331,VALID,0.462891,
2010-02-16, 01:40:04,VALID,1004.16,VALID,0,VALID,88.0678,VALID,0,VALID,25.006,VALID,331,VALID,0.128516,
2010-02-16, 01:41:04,VALID,1004.16,VALID,0,VALID,88.1136,VALID,0,VALID,25.006,VALID,331,VALID,0.275781,
2010-02-16, 01:42:04,VALID,1004.16,VALID,0,VALID,88.1975,VALID,0,VALID,25.0079,VALID,318,VALID,0.382813,
2010-02-16, 01:43:04,VALID,1004.15,VALID,0,VALID,88.2433,VALID,0,VALID,25.0079,VALID,317,VALID,0,
2010-02-16, 01:44:04,VALID,1004.12,VALID,0,VALID,88.2585,VALID,0,VALID,25.0274,VALID,294,VALID,0.334375,
2010-02-16, 01:45:04,VALID,1004.14,VALID,0,VALID,88.1822,VALID,0,VALID,24.9866,VALID,299,VALID,0.509766,
2010-02-16, 01:46:04,VALID,1004.13,VALID,0,VALID,88.022,VALID,0,VALID,25.0469,VALID,284,VALID,0.344922,
2010-02-16, 01:47:04,VALID,1004.17,VALID,0,VALID,87.9305,VALID,0,VALID,25.0858,VALID,293,VALID,0.728906,
2010-02-16, 01:48:04,VALID,1004.14,VALID,0,VALID,87.9381,VALID,0,VALID,25.1034,VALID,283,VALID,0.493359,
2010-02-16, 01:49:04,VALID,1004.14,VALID,0,VALID,87.8084,VALID,0,VALID,25.1229,VALID,278,VALID,0.55625,
2010-02-16, 01:50:04,VALID,1004.11,VALID,0,VALID,87.7703,VALID,0,VALID,25.1423,VALID,284,VALID,0.707812,
2010-02-16, 01:51:04,VALID,1004.1,VALID,0,VALID,87.5033,VALID,0.100563,VALID,25.1813,VALID,285,VALID,0.616016,
2010-02-16, 01:52:04,VALID,1004.1,VALID,0,VALID,87.2973,VALID,0,VALID,25.1813,VALID,286,VALID,0.241016,
2010-02-16, 01:53:04,VALID,1004.04,VALID,0,VALID,87.2973,VALID,0,VALID,25.2007,VALID,285,VALID,0,
2010-02-16, 01:54:04,VALID,1004.05,VALID,0,VALID,87.221,VALID,0,VALID,25.2007,VALID,309,VALID,0.449219,
2010-02-16, 01:55:04,VALID,1004.03,VALID,0,VALID,87.076,VALID,0,VALID,25.2007,VALID,353,VALID,0.475391,
2010-02-16, 01:56:04,VALID,1004.04,VALID,0,VALID,86.8624,VALID,0,VALID,25.121,VALID,353,VALID,0.644922,
2010-02-16, 01:57:04,VALID,1004.03,VALID,0,VALID,87.1294,VALID,0.100563,VALID,25.0255,VALID,353,VALID,0.418359,
2010-02-16, 01:58:04,VALID,1004.01,VALID,0,VALID,87.694,VALID,0.100563,VALID,24.9282,VALID,353,VALID,0.326172,
2010-02-16, 01:59:04,VALID,1004.03,VALID,0,VALID,88.1899,VALID,0,VALID,24.8503,VALID,353,VALID,0.0667969,
2010-02-16, 02:00:04,VALID,1004.02,VALID,0,VALID,88.5637,VALID,0,VALID,24.8113,VALID,353,VALID,0.346484,
2010-02-16, 02:01:04,VALID,1004.06,VALID,0,VALID,88.8765,VALID,0,VALID,24.7724,VALID,353,VALID,0.170312,
2010-02-16, 02:02:04,VALID,1004.06,VALID,0,VALID,88.9756,VALID,0,VALID,24.7548,VALID,353,VALID,0.213672,
2010-02-16, 02:03:04,VALID,1004.06,VALID,0,VALID,89.0367,VALID,0.100563,VALID,24.714,VALID,353,VALID,0.0304688,
2010-02-16, 02:04:04,VALID,1004.09,VALID,0,VALID,89.2045,VALID,0,VALID,24.6945,VALID,353,VALID,0.025,
2010-02-16, 02:05:04,VALID,1004.1,VALID,0,VALID,89.5173,VALID,0.100563,VALID,24.675,VALID,353,VALID,0.11875,
2010-02-16, 02:06:04,VALID,1004.09,VALID,0,VALID,89.6851,VALID,0,VALID,24.6964,VALID,310,VALID,0.486328,
2010-02-16, 02:07:04,VALID,1004.07,VALID,0,VALID,89.7614,VALID,0,VALID,24.6964,VALID,310,VALID,0.271484,
2010-02-16, 02:08:04,VALID,1004.08,VALID,0,VALID,89.769,VALID,0,VALID,24.7159,VALID,310,VALID,0.5625,
2010-02-16, 02:09:04,VALID,1004.05,VALID,0,VALID,89.6775,VALID,0,VALID,24.7548,VALID,292,VALID,0.0804688,
2010-02-16, 02:10:04,VALID,1004.11,VALID,0,VALID,89.6012,VALID,0,VALID,24.7743,VALID,292,VALID,0.00429688,
2010-02-16, 02:11:04,VALID,1004.1,VALID,0,VALID,89.4944,VALID,0,VALID,24.7743,VALID,292,VALID,0.273438,
2010-02-16, 02:12:04,VALID,1004.1,VALID,0,VALID,89.3647,VALID,0,VALID,24.7335,VALID,292,VALID,0.289844,
2010-02-16, 02:13:04,VALID,1004.1,VALID,0,VALID,89.2426,VALID,0,VALID,24.675,VALID,292,VALID,0.185156,
2010-02-16, 02:14:04,VALID,1004.1,VALID,0,VALID,89.2198,VALID,0,VALID,24.5953,VALID,292,VALID,0.398828,
2010-02-16, 02:15:04,VALID,1004.12,VALID,0,VALID,89.3418,VALID,0,VALID,24.5601,VALID,292,VALID,0.291406,
2010-02-16, 02:16:04,VALID,1004.09,VALID,0,VALID,89.5402,VALID,0,VALID,24.4804,VALID,292,VALID,0.290234,
2010-02-16, 02:17:04,VALID,1004.09,VALID,0,VALID,89.769,VALID,0,VALID,24.4025,VALID,292,VALID,0.455078,
2010-02-16, 02:18:04,VALID,1004.08,VALID,0,VALID,90.0513,VALID,0,VALID,24.3441,VALID,292,VALID,0.391406,
2010-02-16, 02:19:04,VALID,1004.07,VALID,0,VALID,90.4022,VALID,0.100563,VALID,24.2857,VALID,292,VALID,0.413281,
2010-02-16, 02:20:04,VALID,1004.05,VALID,0,VALID,91.0812,VALID,0.100563,VALID,24.2857,VALID,319,VALID,0.337891,
2010-02-16, 02:21:04,VALID,1004.07,VALID,0,VALID,91.1956,VALID,0,VALID,24.2681,VALID,319,VALID,0.390625,
2010-02-16, 02:22:04,VALID,1004.05,VALID,0,VALID,91.3711,VALID,0.100563,VALID,24.2078,VALID,320,VALID,0.517969,
2010-02-16, 02:23:04,VALID,1004.02,VALID,0,VALID,91.5389,VALID,0,VALID,24.1494,VALID,328,VALID,0.532422,
2010-02-16, 02:24:04,VALID,1004.03,VALID,0,VALID,91.722,VALID,0,VALID,24.1123,VALID,328,VALID,0.251953,
2010-02-16, 02:25:04,VALID,1004,VALID,0,VALID,92.073,VALID,0.100563,VALID,24.091,VALID,344,VALID,0.85625,
2010-02-16, 02:26:04,VALID,1004,VALID,0,VALID,92.5002,VALID,0,VALID,24.1494,VALID,348,VALID,0.771875,
2010-02-16, 02:27:04,VALID,1004,VALID,0,VALID,92.5612,VALID,0,VALID,24.2273,VALID,348,VALID,0.753125,
2010-02-16, 02:28:04,VALID,1004.02,VALID,0,VALID,92.4391,VALID,0,VALID,24.2662,VALID,337,VALID,0.655078,
2010-02-16, 02:29:04,VALID,1004.03,VALID,0,VALID,92.134,VALID,0,VALID,24.3265,VALID,355,VALID,0.559766,
2010-02-16, 02:30:04,VALID,1004.02,VALID,0,VALID,91.9509,VALID,0,VALID,24.3246,VALID,353,VALID,0.633594,
2010-02-16, 02:31:04,VALID,1004.05,VALID,0,VALID,91.7831,VALID,0,VALID,24.3654,VALID,353,VALID,0.640625,
2010-02-16, 02:32:04,VALID,1004.05,VALID,0,VALID,91.6076,VALID,0,VALID,24.3654,VALID,352,VALID,0.569531,
2010-02-16, 02:33:04,VALID,1004.05,VALID,0,VALID,91.4855,VALID,0,VALID,24.3441,VALID,351,VALID,0.475781,
2010-02-16, 02:34:04,VALID,1004.09,VALID,0,VALID,91.6763,VALID,0,VALID,24.383,VALID,340,VALID,0.867969,
2010-02-16, 02:35:04,VALID,1004.08,VALID,0,VALID,91.5542,VALID,0,VALID,24.4822,VALID,342,VALID,0.507813,
2010-02-16, 02:36:04,VALID,1004.08,VALID,0,VALID,91.3101,VALID,0,VALID,24.4804,VALID,328,VALID,0.316016,
2010-02-16, 02:37:04,VALID,1004.09,VALID,0,VALID,91.2872,VALID,0,VALID,24.5406,VALID,323,VALID,0.258594,
2010-02-16, 02:38:04,VALID,1004.08,VALID,0,VALID,91.1804,VALID,0,VALID,24.5582,VALID,305,VALID,0.442969,
2010-02-16, 02:39:04,VALID,1004.08,VALID,0,VALID,91.0659,VALID,0,VALID,24.638,VALID,331,VALID,0.338672,
2010-02-16, 02:40:04,VALID,1004.07,VALID,0,VALID,90.7226,VALID,0,VALID,24.6769,VALID,331,VALID,0.00117188,
2010-02-16, 02:41:04,VALID,1004.02,VALID,0,VALID,90.5701,VALID,0,VALID,24.7159,VALID,338,VALID,0.433203,
2010-02-16, 02:42:04,VALID,1004.01,VALID,0,VALID,90.2497,VALID,0,VALID,24.7529,VALID,359,VALID,0.494141,
2010-02-16, 02:43:04,VALID,1004,VALID,0,VALID,89.6622,VALID,0,VALID,24.8132,VALID,355,VALID,0.550781,
2010-02-16, 02:44:04,VALID,1003.98,VALID,0,VALID,89.3647,VALID,0,VALID,24.7548,VALID,355,VALID,0.425391,
2010-02-16, 02:45:04,VALID,1004,VALID,0,VALID,89.2732,VALID,0,VALID,24.7567,VALID,355,VALID,0.419141,
2010-02-16, 02:46:04,VALID,1003.98,VALID,0,VALID,89.3113,VALID,0,VALID,24.6556,VALID,355,VALID,0.492969,
2010-02-16, 02:47:04,VALID,1003.97,VALID,0,VALID,89.5478,VALID,0,VALID,24.6185,VALID,355,VALID,0.392188,
2010-02-16, 02:48:04,VALID,1003.96,VALID,0,VALID,89.7996,VALID,0,VALID,24.5388,VALID,355,VALID,0.43125,
2010-02-16, 02:49:04,VALID,1003.98,VALID,0,VALID,90.0666,VALID,0,VALID,24.5212,VALID,345,VALID,0.713672,
2010-02-16, 02:50:04,VALID,1003.96,VALID,0,VALID,90.3946,VALID,0,VALID,24.5017,VALID,344,VALID,0.330859,
2010-02-16, 02:51:04,VALID,1003.98,VALID,0,VALID,90.6616,VALID,0,VALID,24.4804,VALID,351,VALID,0.491797,
2010-02-16, 02:52:04,VALID,1003.97,VALID,0,VALID,90.7989,VALID,0,VALID,24.4804,VALID,347,VALID,0.349219,
2010-02-16, 02:53:04,VALID,1003.99,VALID,0,VALID,90.776,VALID,0,VALID,24.5017,VALID,347,VALID,0.520312,
2010-02-16, 02:54:04,VALID,1003.99,VALID,0,VALID,90.7684,VALID,0,VALID,24.459,VALID,347,VALID,0.380078,
2010-02-16, 02:55:04,VALID,1003.99,VALID,0,VALID,90.8523,VALID,0,VALID,24.5017,VALID,347,VALID,0.553125,
2010-02-16, 02:56:04,VALID,1003.97,VALID,0,VALID,90.9439,VALID,0,VALID,24.4609,VALID,347,VALID,0.415625,
2010-02-16, 02:57:04,VALID,1003.99,VALID,0,VALID,91.0431,VALID,0,VALID,24.4822,VALID,347,VALID,0.462109,
2010-02-16, 02:58:04,VALID,1004.01,VALID,0,VALID,91.3406,VALID,0,VALID,24.5212,VALID,354,VALID,0.734375,
2010-02-16, 02:59:04,VALID,1003.98,VALID,0,VALID,91.2796,VALID,0,VALID,24.5388,VALID,358,VALID,0.739062,
2010-02-16, 03:00:04,VALID,1003.99,VALID,0,VALID,91.1422,VALID,0,VALID,24.5777,VALID,354,VALID,0.820703,
2010-02-16, 03:01:04,VALID,1003.97,VALID,0,VALID,91.0278,VALID,0,VALID,24.6166,VALID,347,VALID,0.423047,
2010-02-16, 03:02:04,VALID,1003.98,VALID,0,VALID,91.0736,VALID,0,VALID,24.6556,VALID,7,VALID,1.23281,
2010-02-16, 03:03:04,VALID,1003.99,VALID,0,VALID,90.8829,VALID,0,VALID,24.7548,VALID,353,VALID,0.603516,
2010-02-16, 03:04:04,VALID,1004.04,VALID,0,VALID,90.776,VALID,0,VALID,24.7724,VALID,352,VALID,0.751953,
2010-02-16, 03:05:04,VALID,1004.05,VALID,0,VALID,90.5624,VALID,0,VALID,24.8503,VALID,360,VALID,0.576563,
2010-02-16, 03:06:04,VALID,1004.06,VALID,0,VALID,90.1657,VALID,0,VALID,24.8697,VALID,354,VALID,0.573047,
2010-02-16, 03:07:04,VALID,1004.07,VALID,0,VALID,89.9445,VALID,0,VALID,24.9087,VALID,347,VALID,0.757031,
2010-02-16, 03:08:04,VALID,1004.05,VALID,0,VALID,89.7004,VALID,0,VALID,24.9671,VALID,354,VALID,0.753125,
2010-02-16, 03:09:04,VALID,1004.08,VALID,0,VALID,89.5936,VALID,0,VALID,25.006,VALID,359,VALID,1.09844,
2010-02-16, 03:10:04,VALID,1004.06,VALID,0,VALID,89.3952,VALID,0,VALID,25.0644,VALID,349,VALID,1.01641,
2010-02-16, 03:11:04,VALID,1004.08,VALID,0,VALID,89.2579,VALID,0,VALID,25.0839,VALID,355,VALID,0.933203,
2010-02-16, 03:12:04,VALID,1004.08,VALID,0,VALID,89.1664,VALID,0.100563,VALID,25.1229,VALID,347,VALID,0.959375,
2010-02-16, 03:13:04,VALID,1004.07,VALID,0,VALID,89.0595,VALID,0,VALID,25.1423,VALID,359,VALID,0.688672,
2010-02-16, 03:14:04,VALID,1004.07,VALID,0,VALID,89.029,VALID,0,VALID,25.1832,VALID,351,VALID,0.670313,
2010-02-16, 03:15:04,VALID,1004.08,VALID,0,VALID,89.1206,VALID,0,VALID,25.1813,VALID,350,VALID,1.34492,
2010-02-16, 03:16:04,VALID,1004.09,VALID,0,VALID,89.0901,VALID,0,VALID,25.2806,VALID,351,VALID,1.58945,
2010-02-16, 03:17:04,VALID,1004.11,VALID,0,VALID,88.8383,VALID,0,VALID,25.3195,VALID,354,VALID,1.10195,
2010-02-16, 03:18:04,VALID,1004.12,VALID,0,VALID,88.6781,VALID,0,VALID,25.3955,VALID,18,VALID,1.18477,
2010-02-16, 03:19:04,VALID,1004.08,VALID,0,VALID,88.4874,VALID,0,VALID,25.4344,VALID,359,VALID,1.53867,
2010-02-16, 03:20:04,VALID,1004.05,VALID,0,VALID,88.0144,VALID,0,VALID,25.5142,VALID,359,VALID,2.06211,
2010-02-16, 03:21:04,VALID,1004.08,VALID,0,VALID,87.7703,VALID,0,VALID,25.5532,VALID,358,VALID,1.16875,
2010-02-16, 03:22:04,VALID,1004.08,VALID,0,VALID,87.549,VALID,0,VALID,25.6311,VALID,351,VALID,1.08086,
2010-02-16, 03:23:04,VALID,1004.1,VALID,0,VALID,87.2668,VALID,0,VALID,25.6292,VALID,353,VALID,1.28281,
2010-02-16, 03:24:04,VALID,1004.08,VALID,0,VALID,87.1294,VALID,0,VALID,25.67,VALID,342,VALID,1.20586,
2010-02-16, 03:25:04,VALID,1004.1,VALID,0,VALID,87.0684,VALID,0,VALID,25.7109,VALID,351,VALID,1.0082,
2010-02-16, 03:26:04,VALID,1004.1,VALID,0,VALID,87.0074,VALID,0,VALID,25.6895,VALID,352,VALID,0.944141,
2010-02-16, 03:27:04,VALID,1004.13,VALID,0,VALID,86.954,VALID,0,VALID,25.6895,VALID,334,VALID,1.02539,
2010-02-16, 03:28:04,VALID,1004.12,VALID,0,VALID,86.9387,VALID,0,VALID,25.6895,VALID,349,VALID,0.814453,
2010-02-16, 03:29:04,VALID,1004.14,VALID,0,VALID,87.0226,VALID,0,VALID,25.6486,VALID,355,VALID,1.57031,
2010-02-16, 03:30:04,VALID,1004.17,VALID,0,VALID,86.9311,VALID,0.100563,VALID,25.6292,VALID,350,VALID,1.63516,
2010-02-16, 03:31:04,VALID,1004.21,VALID,0,VALID,86.9158,VALID,0,VALID,25.6272,VALID,352,VALID,0.841797,
2010-02-16, 03:32:04,VALID,1004.21,VALID,0,VALID,86.9311,VALID,0,VALID,25.6506,VALID,353,VALID,0.871875,
2010-02-16, 03:33:04,VALID,1004.22,VALID,0,VALID,86.9921,VALID,0,VALID,25.6097,VALID,12,VALID,0.590234,
2010-02-16, 03:34:04,VALID,1004.27,VALID,0,VALID,86.9998,VALID,0,VALID,25.6097,VALID,326,VALID,1.01133,
2010-02-16, 03:35:04,VALID,1004.28,VALID,0,VALID,87.0303,VALID,0.100563,VALID,25.6097,VALID,347,VALID,0.720703,
2010-02-16, 03:36:04,VALID,1004.26,VALID,0,VALID,87.0532,VALID,0,VALID,25.5902,VALID,343,VALID,1.02148,
2010-02-16, 03:37:04,VALID,1004.26,VALID,0,VALID,87.0303,VALID,0,VALID,25.6097,VALID,354,VALID,0.716406,
2010-02-16, 03:38:04,VALID,1004.27,VALID,0,VALID,87.0837,VALID,0,VALID,25.5707,VALID,350,VALID,0.45,
2010-02-16, 03:39:04,VALID,1004.26,VALID,0,VALID,87.1752,VALID,0,VALID,25.5513,VALID,342,VALID,0.432422,
2010-02-16, 03:40:04,VALID,1004.27,VALID,0,VALID,87.2896,VALID,0,VALID,25.5123,VALID,352,VALID,1.08359,
2010-02-16, 03:41:04,VALID,1004.28,VALID,0,VALID,87.3888,VALID,0,VALID,25.4928,VALID,29,VALID,0.260938,
2010-02-16, 03:42:04,VALID,1004.26,VALID,0,VALID,87.4499,VALID,0,VALID,25.4734,VALID,344,VALID,0.536719,
2010-02-16, 03:43:04,VALID,1004.28,VALID,0,VALID,87.549,VALID,0,VALID,25.4539,VALID,342,VALID,0.512891,
2010-02-16, 03:44:04,VALID,1004.29,VALID,0,VALID,87.6329,VALID,0,VALID,25.4149,VALID,348,VALID,0.460547,